[[{"header":{"parameterUnit":"m.s-1","parameterCategory":2,"la1":30.2991,"la2":30.254,"lo1":-89.0895,"lo2":-89.0444,"dy":0.0017,"dx":0.0017,"nx":28,"ny":28,"refTime":"2023-08-12T03:00:00:Z","depth":"0","parameterNumber":2,"parameterNumberName":"U-component_of_CURRENTS"},"data":[0,0,0,0,0,0,0,0,0,0,0,0,0,0,0,0,0,0,0,0,0,0,0,0,0,0,0,0,0,0,0,0,0,0,0,0,0,0,0,0,0,0,0,0,0,0,0,0,0,0,0,0,0,0,0,0,0,0,0.0167,0.0169,0,0.0195,0.0194,0.0192,0.0209,0.0211,0.0212,0.0214,0.0281,0.0281,0.0281,0,0,0,0,0,0,0,0,0,0,0,0,0,0.0007,0.0009,0.0167,0.0169,0.0171,0.0195,0.0194,0.0192,0.0208,0.0211,0.0213,0.0215,0.0281,0.0281,0.0281,0,0,0,0,0,0,0,0,0,0,0,0,0,0.0041,0.0009,0.0167,0.0197,0.0201,0.0196,0.0194,0.0192,0.0208,0.0211,0.0213,0.0216,0.0281,0.0281,0.0281,0.0224,0,0,0.0281,0.0281,0,0,0,0,0,0,0,0,0.0039,0.0044,0.019,0.0195,0.02,0.0219,0.0163,0.0212,0.0207,0.0184,0.0214,0.0217,0.0275,0.0275,0.0245,0.0227,0.023,0.0281,0.0281,0.0281,0.0281,0,0,0,0,0,0,0,0.0037,0.0043,0.0158,0.0193,0.0199,0.0169,0.0176,0.017,0.0198,0.0186,0.0193,0.0227,0.0275,0.0245,0.0247,0.0231,0.0281,0.0281,0.0281,0.0281,0.0306,0.0306,0,0,0,0,0,0,0.0077,0.0041,0.0157,0.0161,0.0147,0.0172,0.0178,0.0193,0.0198,0.0207,0.0224,0.0228,0.0243,0.0247,0.025,0.0263,0.0281,0.0281,0.0281,0.0305,0.0306,0.0306,0,0,0,0,0,0,0.0073,0.0086,0.0157,0.0118,0.0128,0.0175,0.0189,0.0193,0.0223,0.023,0.0236,0.0261,0.0246,0.025,0.0316,0.0264,0.0281,0.0281,0.0304,0.0305,0.0306,0.024,0,0,0,0,0,0,0.0067,0.0083,0.0101,0.0121,0.0133,0.0173,0.0189,0.0192,0.0246,0.0252,0.0262,0.0268,0.0248,0.0316,0.0316,0.0264,0.0281,0.0303,0.0305,0.0306,0.0241,0.0238,0.0236,0,0,0,0,0,0.0061,0.0121,0.0101,0.0116,0.0157,0.0176,0.0175,0.0204,0.0247,0.0243,0.0292,0.027,0.0322,0.0318,0.0317,0.0264,0.0303,0.0304,0.0306,0.0242,0.0239,0.0236,0,0,0,0,0,0,0.0055,0.0129,0.0109,0.0181,0.0175,0.0187,0.0215,0.0234,0.0261,0.0283,0.0298,0.0305,0.0313,0.0333,0.0329,0.0281,0.0299,0.0301,0.0251,0.0248,0.0246,0.032,0.0281,0,0,0,0,0,0.0059,0.0127,0.014,0.019,0.0194,0.02,0.0219,0.0226,0.0263,0.0278,0.0285,0.0306,0.0302,0.0325,0.0304,0.0313,0.0366,0.0278,0.0275,0.0272,0.0337,0.0378,0.0385,0.0311,0.0311,0.0311,0,0,0.0072,0.0125,0.0158,0.0194,0.0191,0.0213,0.0215,0.0249,0.0272,0.0281,0.0317,0.0286,0.0303,0.028,0.0287,0.0307,0.0315,0.0274,0.0271,0.0339,0.0381,0.0388,0.0395,0.0312,0.0312,0.0312,0,0,0.0118,0.0162,0.0205,0.0217,0.024,0.025,0.0278,0.0277,0.0277,0.0306,0.0296,0.0286,0.0297,0.027,0.0274,0.0269,0.0283,0.0234,0.0295,0.0331,0.0338,0.0345,0.0388,0.04,0.0251,0.0251,0.0251,0,0.0121,0.0163,0.0212,0.0242,0.0255,0.0286,0.0286,0.031,0.0329,0.0321,0.033,0.0323,0.0295,0.0304,0.028,0.0256,0.0302,0.0289,0.0327,0.0335,0.0343,0.0387,0.0401,0.0248,0.0248,0.0249,0.0249,0,0.0156,0.0198,0.0232,0.0282,0.0299,0.0315,0.0344,0.0362,0.0379,0.0373,0.0364,0.0338,0.0347,0.0289,0.029,0.0301,0.0319,0.0294,0.033,0.0347,0.0391,0.0406,0.0244,0.0245,0.0246,0.0246,0,0,0.0141,0.023,0.024,0.0235,0.0305,0.0314,0.0382,0.0391,0.0434,0.0431,0.0434,0.0411,0.0389,0.04,0.0353,0.0387,0.0419,0.038,0.0383,0.0417,0.0527,0.0649,0.0677,0.0401,0.0404,0.0407,0.0522,0,0.0121,0.0184,0.0221,0.0256,0.0277,0.0316,0.0363,0.0397,0.0429,0.0444,0.0437,0.0425,0.044,0.0403,0.0451,0.0401,0.0465,0.0393,0.0517,0.0522,0.0622,0.0701,0.0793,0.0917,0.0537,0.054,0.0542,0,0.0119,0.0165,0.0193,0.0221,0.022,0.0261,0.0318,0.0345,0.0416,0.0414,0.047,0.0476,0.0511,0.0498,0.0595,0.0554,0.0576,0.0571,0.0574,0.0746,0.0676,0.0848,0.0959,0.0968,0.0566,0.0564,0.0562,0,0.0093,0.0132,0.0151,0.017,0.0231,0.0236,0.0259,0.0344,0.0377,0.0411,0.0433,0.0507,0.0524,0.0599,0.0676,0.0618,0.0792,0.0683,0.0845,0.0851,0.0995,0.1011,0.1141,0.0803,0.0803,0.0803,0.0802,0,0.0089,0.0098,0.0149,0.0174,0.0178,0.0205,0.0242,0.0272,0.0344,0.0396,0.0421,0.0509,0.0561,0.0682,0.0717,0.0894,0.0854,0.0923,0.0919,0.0972,0.0984,0.1052,0.0953,0.0807,0.0806,0.0805,0.0804,0,0.0098,0.013,0.0145,0.0177,0.019,0.0197,0.0259,0.0306,0.0344,0.0421,0.0433,0.054,0.0707,0.0822,0.0926,0.0968,0.1036,0.1145,0.1226,0.1232,0.1345,0.1237,0.1148,0.1064,0.1301,0.1306,0.1309,0,0.0108,0.0131,0.0163,0.0183,0.0206,0.0238,0.0282,0.032,0.0385,0.0482,0.0517,0.0698,0.0855,0.1094,0.1251,0.1415,0.1249,0.1527,0.1436,0.1448,0.132,0.102,0.093,0.1566,0.1572,0.1576,0.158,0,0.0111,0.013,0.0154,0.0229,0.0265,0.0294,0.0352,0.0415,0.0469,0.0547,0.0689,0.0811,0.1097,0.1346,0.158,0.1668,0.1413,0.1621,0.161,0.157,0.1275,0.1162,0.1376,0.1619,0.1615,0.1612,0.161,0.1608,0.0119,0.0129,0.0196,0.0247,0.0292,0.0352,0.0392,0.0476,0.0581,0.0684,0.0811,0.0931,0.1291,0.1663,0.1793,0.2026,0.1718,0.1978,0.1852,0.1552,0.1468,0.1802,0.2049,0.2048,0.2046,0.2045,0.2044,0,0.0139,0.0162,0.0212,0.0275,0.0326,0.0354,0.0442,0.0486,0.0605,0.0706,0.0849,0.1125,0.1512,0.1788,0.2199,0.2239,0.1994,0.2189,0.1806,0.1706,0.2063,0.2087,0.2384,0.2384,0.2384,0.2384,0.2384,0.2384,0.0151,0.0197,0.0212,0.0296,0.034,0.0409,0.0451,0.0525,0.0594,0.0732,0.0812,0.0924,0.13,0.1926,0.2289,0.2318,0.198,0.1925,0.1727,0.2064,0.2033,0.2003,0.2011,0.2287,0.2287,0.1338,0.1331,0.1326]},{"header":{"parameterUnit":"m.s-1","parameterCategory":2,"la1":30.2991,"la2":30.254,"lo1":-89.0895,"lo2":-89.0444,"dy":0.0017,"dx":0.0017,"nx":28,"ny":28,"refTime":"2023-08-12T03:00:00:Z","depth":"0","parameterNumber":3,"parameterNumberName":"V-component_of_CURRENTS"},"data":[0,0,0,0,0,0,0,0,0,0,0,0,0,0,0,0,0,0,0,0,0,0,0,0,0,0,0,0,0,0,0,0,0,0,0,0,0,0,0,0,0,0,0,0,0,0,0,0,0,0,0,0,0,0,0,0,0,0,-0.0025,-0.0025,0,-0.0108,-0.0109,-0.0111,-0.0126,-0.0125,-0.0123,-0.0122,-0.0081,-0.0081,-0.0082,0,0,0,0,0,0,0,0,0,0,0,0,0,-0.0007,-0.0007,-0.0025,-0.0025,-0.0025,-0.0108,-0.011,-0.0111,-0.0126,-0.0125,-0.0123,-0.0121,-0.0081,-0.0081,-0.0082,0,0,0,0,0,0,0,0,0,0,0,0,0,-0.0052,-0.0007,-0.0025,-0.0036,-0.0038,-0.0107,-0.011,-0.0112,-0.0127,-0.0124,-0.0122,-0.012,-0.0081,-0.0081,-0.0082,-0.0128,0,0,-0.0083,-0.0083,0,0,0,0,0,0,0,0,-0.005,-0.0054,-0.0034,-0.0036,-0.0037,-0.0097,-0.0088,-0.0108,-0.0127,-0.0102,-0.0122,-0.0119,-0.0071,-0.0072,-0.0106,-0.0126,-0.0124,-0.0083,-0.0083,-0.0083,-0.0084,0,0,0,0,0,0,0,-0.0046,-0.0051,-0.0066,-0.0035,-0.0036,-0.0081,-0.0085,-0.0094,-0.0102,-0.0104,-0.0103,-0.01,-0.0072,-0.0106,-0.0105,-0.0123,-0.0083,-0.0083,-0.0084,-0.0084,-0.0173,-0.0175,0,0,0,0,0,0,-0.0015,-0.0048,-0.0063,-0.0068,-0.0029,-0.0082,-0.0087,-0.0087,-0.0104,-0.0104,-0.0102,-0.01,-0.0107,-0.0105,-0.0103,-0.0099,-0.0083,-0.0084,-0.0084,-0.0171,-0.0173,-0.0176,0,0,0,0,0,0,-0.0015,-0.0016,-0.006,-0.0053,-0.006,-0.0083,-0.0084,-0.0089,-0.0114,-0.0102,-0.01,-0.0118,-0.0105,-0.0103,-0.0084,-0.0099,-0.0084,-0.0084,-0.0168,-0.0171,-0.0174,-0.0127,0,0,0,0,0,0,-0.0014,-0.0016,-0.0012,-0.0051,-0.0059,-0.0103,-0.0085,-0.0092,-0.0112,-0.0111,-0.0116,-0.0111,-0.0103,-0.0083,-0.0084,-0.0099,-0.0085,-0.0165,-0.017,-0.0173,-0.0126,-0.0128,-0.013,0,0,0,0,0,-0.0013,-0.0007,-0.0012,-0.0014,-0.0052,-0.0104,-0.0115,-0.0129,-0.0114,-0.0141,-0.0115,-0.011,-0.0111,-0.0084,-0.0085,-0.01,-0.0164,-0.0168,-0.0173,-0.0125,-0.0128,-0.013,0,0,0,0,0,0,-0.0007,-0.0008,-0.0015,-0.0012,-0.0057,-0.0103,-0.0115,-0.0132,-0.0144,-0.0125,-0.0112,-0.0106,-0.0105,-0.0121,-0.0091,-0.0148,-0.0149,-0.0154,-0.0112,-0.0115,-0.0117,-0.0134,-0.0085,0,0,0,0,0,-0.0002,0.0001,-0.0025,-0.0035,-0.0043,-0.0084,-0.0105,-0.0122,-0.0132,-0.0137,-0.0139,-0.014,-0.0136,-0.0132,-0.0145,-0.016,-0.0164,-0.0186,-0.0188,-0.0189,-0.021,-0.0202,-0.0203,-0.0191,-0.0191,-0.0191,0,0,-0.0007,-0.0007,-0.0008,-0.0034,-0.0062,-0.0087,-0.0094,-0.0126,-0.0144,-0.0127,-0.0142,-0.0142,-0.0143,-0.0155,-0.016,-0.0158,-0.0196,-0.0195,-0.0195,-0.0216,-0.0207,-0.0207,-0.0207,-0.0194,-0.0194,-0.0193,0,0,-0.002,-0.0011,-0.0014,-0.004,-0.0069,-0.0094,-0.01,-0.0147,-0.0157,-0.017,-0.0161,-0.0156,-0.0175,-0.0174,-0.0171,-0.0201,-0.0205,-0.0232,-0.0248,-0.0238,-0.0238,-0.0237,-0.023,-0.023,-0.0233,-0.0233,-0.0233,0,-0.0022,-0.0029,-0.0033,-0.0046,-0.0057,-0.0091,-0.0111,-0.0136,-0.0177,-0.0174,-0.0164,-0.0187,-0.0179,-0.0178,-0.0197,-0.0199,-0.0207,-0.0219,-0.0234,-0.0235,-0.0235,-0.0228,-0.0228,-0.0231,-0.0232,-0.0232,-0.0232,0,-0.0049,-0.0048,-0.0052,-0.0068,-0.009,-0.0117,-0.0135,-0.0164,-0.0165,-0.018,-0.0185,-0.0183,-0.0192,-0.0206,-0.0203,-0.0227,-0.0235,-0.0226,-0.021,-0.0232,-0.0225,-0.0226,-0.0229,-0.023,-0.023,-0.0231,0,0,-0.0049,-0.0065,-0.0062,-0.0061,-0.0097,-0.0113,-0.0136,-0.016,-0.0149,-0.0187,-0.0188,-0.0194,-0.0199,-0.0204,-0.0215,-0.0228,-0.0223,-0.0245,-0.0245,-0.0209,-0.0214,-0.0203,-0.0203,-0.0215,-0.0216,-0.0216,-0.0201,0,-0.0067,-0.0083,-0.0088,-0.0101,-0.0106,-0.0126,-0.0127,-0.0147,-0.0161,-0.0174,-0.018,-0.018,-0.0193,-0.0195,-0.0208,-0.0228,-0.0228,-0.0229,-0.0228,-0.0228,-0.019,-0.0204,-0.0126,-0.0106,-0.0202,-0.0202,-0.0202,0,-0.0078,-0.0084,-0.0109,-0.0081,-0.0078,-0.0091,-0.009,-0.0103,-0.0123,-0.0115,-0.0138,-0.0162,-0.0194,-0.0199,-0.022,-0.0225,-0.0227,-0.0239,-0.0237,-0.025,-0.0219,-0.0108,-0.0104,-0.0047,-0.0203,-0.0203,-0.0203,0,-0.0071,-0.0073,-0.009,-0.0096,-0.0095,-0.009,-0.0081,-0.0089,-0.0079,-0.0106,-0.0102,-0.0136,-0.0136,-0.0174,-0.0205,-0.0217,-0.023,-0.0226,-0.0212,-0.021,-0.0159,-0.0153,-0.0076,-0.0232,-0.0232,-0.0233,-0.0233,0,-0.0079,-0.0074,-0.0082,-0.0092,-0.0069,-0.0063,-0.0044,-0.0035,-0.0033,-0.0008,-0.0071,-0.0067,-0.0134,-0.0161,-0.0202,-0.0208,-0.0204,-0.0228,-0.021,-0.0143,-0.0135,-0.0097,-0.0069,-0.0232,-0.0232,-0.0232,-0.0232,0,-0.0077,-0.0097,-0.0088,-0.0077,-0.0077,-0.0053,-0.002,0.0006,0.0015,0.0024,0.0013,-0.0011,-0.0026,-0.0093,-0.0131,-0.0165,-0.0137,-0.0192,-0.0117,-0.0092,-0.0049,-0.0022,0.0039,0.0135,-0.0189,-0.0189,-0.0189,0,-0.008,-0.0092,-0.0079,-0.0071,-0.007,-0.0044,-0.0019,0.0014,0.0042,0.0069,0.0083,0.006,0.008,0.0021,-0.0055,-0.011,-0.0065,-0.0087,-0.0099,-0.0046,-0.0002,0.0015,0.0094,-0.0003,-0.0001,0.0,0.0001,0,-0.0077,-0.0077,-0.0077,-0.0058,-0.0038,-0.0006,0.0036,0.0068,0.0117,0.0143,0.02,0.0209,0.0175,0.0172,0.0085,0.0026,0.001,-0.006,-0.0011,0.0133,0.0164,0.0266,-0.0019,0.0014,0.0013,0.0012,0.0011,0.0011,-0.0058,-0.0048,-0.0046,-0.0029,-0.0006,0.0047,0.0103,0.0156,0.0218,0.0315,0.0318,0.0401,0.0408,0.0307,0.0194,0.0122,0.013,0.0135,0.0159,0.0166,0.0272,0.0,0.0052,0.0051,0.0051,0.005,0.0049,0,-0.0037,-0.0035,-0.0009,0.0026,0.0068,0.0077,0.0151,0.0227,0.0325,0.0421,0.0507,0.065,0.0619,0.0524,0.0419,0.037,0.0365,0.0364,0.0429,0.0498,0.0258,0.0279,0.0391,0.039,0.039,0.039,0.039,0.039,-0.002,-0.0007,0.0,0.0068,0.0112,0.0205,0.0265,0.0359,0.0448,0.0637,0.0768,0.0872,0.0942,0.0709,0.0589,0.055,0.0665,0.0634,0.0677,0.0517,0.0498,0.048,0.0507,0.0664,0.0664,0.0966,0.0968,0.097]}],[{"header":{"parameterUnit":"m.s-1","parameterCategory":2,"la1":30.2991,"la2":30.254,"lo1":-89.0895,"lo2":-89.0444,"dy":0.0017,"dx":0.0017,"nx":28,"ny":28,"refTime":"2023-08-12T03:00:00:Z","depth":"2","parameterNumber":2,"parameterNumberName":"U-component_of_CURRENTS"},"data":[0,0,0,0,0,0,0,0,0,0,0,0,0,0,0,0,0,0,0,0,0,0,0,0,0,0,0,0,0,0,0,0,0,0,0,0,0,0,0,0,0,0,0,0,0,0,0,0,0,0,0,0,0,0,0,0,0,0,-0.2182,-0.2183,0,-0.2238,-0.2239,-0.2239,-0.2083,-0.2079,-0.2074,-0.2069,-0.1998,-0.2001,-0.2003,0,0,0,0,0,0,0,0,0,0,0,0,0,-0.1965,-0.1969,-0.2182,-0.2183,-0.2183,-0.2238,-0.2239,-0.2239,-0.2084,-0.2078,-0.2073,-0.2067,-0.1997,-0.2,-0.2004,0,0,0,0,0,0,0,0,0,0,0,0,0,-0.2044,-0.1971,-0.2182,-0.2112,-0.2107,-0.2238,-0.2239,-0.224,-0.2086,-0.2078,-0.2071,-0.2064,-0.1996,-0.2,-0.2004,-0.2174,0,0,-0.2016,-0.2018,0,0,0,0,0,0,0,0,-0.204,-0.2052,-0.2122,-0.2117,-0.2111,-0.2146,-0.2136,-0.2211,-0.2087,-0.2094,-0.2069,-0.2061,-0.2041,-0.2041,-0.207,-0.2171,-0.2167,-0.2016,-0.2019,-0.2021,-0.2022,0,0,0,0,0,0,0,-0.2034,-0.2049,-0.2204,-0.2123,-0.2117,-0.2086,-0.2089,-0.215,-0.2106,-0.2093,-0.2082,-0.209,-0.2036,-0.2067,-0.2067,-0.2166,-0.2016,-0.202,-0.2022,-0.2024,-0.2058,-0.2056,0,0,0,0,0,0,-0.2036,-0.2045,-0.2203,-0.2206,-0.2057,-0.2096,-0.21,-0.2142,-0.2107,-0.2096,-0.2096,-0.2082,-0.2063,-0.2062,-0.2063,-0.1963,-0.202,-0.2024,-0.2026,-0.2059,-0.2057,-0.2056,0,0,0,0,0,0,-0.2031,-0.2051,-0.22,-0.2123,-0.214,-0.2107,-0.2157,-0.2147,-0.208,-0.2111,-0.2095,-0.2026,-0.2058,-0.2058,-0.2054,-0.1969,-0.2026,-0.203,-0.2061,-0.2059,-0.2057,-0.1955,0,0,0,0,0,0,-0.2026,-0.205,-0.2046,-0.2125,-0.2144,-0.2235,-0.2164,-0.2154,-0.2103,-0.2082,-0.205,-0.204,-0.2052,-0.2048,-0.2058,-0.1976,-0.2033,-0.2063,-0.206,-0.2057,-0.196,-0.1949,-0.194,0,0,0,0,0,-0.2018,-0.2038,-0.2047,-0.2063,-0.2153,-0.2236,-0.2243,-0.2194,-0.2105,-0.2099,-0.2063,-0.2036,-0.2033,-0.2053,-0.2064,-0.1981,-0.2064,-0.2061,-0.2058,-0.1964,-0.1951,-0.194,0,0,0,0,0,0,-0.1905,-0.2028,-0.2036,-0.2081,-0.2138,-0.2207,-0.2177,-0.2162,-0.2136,-0.2077,-0.2071,-0.2065,-0.2019,-0.2039,-0.2059,-0.198,-0.2025,-0.2024,-0.195,-0.1938,-0.1929,-0.1925,-0.2036,0,0,0,0,0,-0.1901,-0.1969,-0.2059,-0.2095,-0.2102,-0.2131,-0.2136,-0.2129,-0.2137,-0.211,-0.2097,-0.2062,-0.2043,-0.2014,-0.2033,-0.203,-0.2051,-0.1967,-0.1957,-0.1949,-0.1952,-0.1912,-0.1898,-0.2045,-0.2045,-0.2045,0,0,-0.1878,-0.1944,-0.1983,-0.2079,-0.2095,-0.2133,-0.2111,-0.2118,-0.2114,-0.2118,-0.2065,-0.2051,-0.2041,-0.2012,-0.1987,-0.1996,-0.1924,-0.1944,-0.1937,-0.1946,-0.1907,-0.1892,-0.188,-0.2043,-0.2043,-0.2044,0,0,-0.1872,-0.1906,-0.1952,-0.1998,-0.2043,-0.2085,-0.2068,-0.2116,-0.207,-0.2078,-0.2039,-0.1989,-0.1981,-0.1957,-0.1937,-0.1898,-0.1888,-0.1855,-0.1785,-0.1744,-0.1732,-0.1721,-0.1755,-0.1748,-0.183,-0.1829,-0.1829,0,-0.1801,-0.1884,-0.1969,-0.2003,-0.2008,-0.2047,-0.2055,-0.2069,-0.2106,-0.2074,-0.2027,-0.1958,-0.1953,-0.1885,-0.1847,-0.1872,-0.1865,-0.1826,-0.173,-0.172,-0.171,-0.1747,-0.1741,-0.1824,-0.1825,-0.1825,-0.1826,0,-0.185,-0.1872,-0.1878,-0.1953,-0.1997,-0.1998,-0.2052,-0.2051,-0.1989,-0.1995,-0.1901,-0.1892,-0.1824,-0.18,-0.1806,-0.1714,-0.174,-0.1736,-0.1757,-0.1689,-0.1733,-0.1728,-0.1817,-0.1818,-0.182,-0.1821,0,0,-0.171,-0.1879,-0.1845,-0.1851,-0.1941,-0.1964,-0.1987,-0.1998,-0.1901,-0.1922,-0.1801,-0.1772,-0.1716,-0.1692,-0.1665,-0.1631,-0.1571,-0.1631,-0.1631,-0.1662,-0.151,-0.1296,-0.1272,-0.1517,-0.1515,-0.1513,-0.1578,0,-0.1651,-0.1709,-0.1815,-0.1803,-0.1812,-0.1879,-0.1867,-0.1897,-0.1851,-0.1766,-0.1745,-0.1617,-0.1681,-0.1559,-0.1557,-0.156,-0.1547,-0.1558,-0.1576,-0.1579,-0.1391,-0.1253,-0.125,-0.1282,-0.1573,-0.1572,-0.1572,0,-0.1601,-0.1638,-0.1656,-0.1683,-0.167,-0.1683,-0.1616,-0.1586,-0.1558,-0.1551,-0.1497,-0.143,-0.1402,-0.1409,-0.1442,-0.1429,-0.1461,-0.1489,-0.1491,-0.132,-0.135,-0.1392,-0.1263,-0.1564,-0.1565,-0.1565,-0.1566,0,-0.1445,-0.1481,-0.1478,-0.1496,-0.1569,-0.1538,-0.15,-0.1482,-0.1453,-0.1344,-0.1319,-0.1272,-0.121,-0.1246,-0.131,-0.1334,-0.1348,-0.1393,-0.1266,-0.1258,-0.1275,-0.1266,-0.1396,-0.1396,-0.1396,-0.1396,-0.1395,0,-0.1362,-0.1287,-0.1379,-0.1375,-0.13,-0.1331,-0.1233,-0.1224,-0.1186,-0.1166,-0.1118,-0.1131,-0.1146,-0.1152,-0.1246,-0.1227,-0.1304,-0.1224,-0.1216,-0.1239,-0.1226,-0.149,-0.15,-0.1398,-0.1398,-0.1397,-0.1397,0,-0.1232,-0.1278,-0.1261,-0.1284,-0.127,-0.1178,-0.1194,-0.1114,-0.1063,-0.1037,-0.0995,-0.1028,-0.1012,-0.1032,-0.1088,-0.1101,-0.112,-0.1105,-0.1148,-0.1135,-0.1101,-0.1105,-0.0953,-0.0945,-0.0938,-0.0932,-0.0927,0,-0.1181,-0.1156,-0.1222,-0.1212,-0.1218,-0.1139,-0.1115,-0.1102,-0.1103,-0.1041,-0.106,-0.0935,-0.0982,-0.0945,-0.0871,-0.0865,-0.0999,-0.0822,-0.0822,-0.1024,-0.1035,-0.1051,-0.1064,-0.088,-0.0875,-0.0872,-0.0868,0,-0.1038,-0.106,-0.1113,-0.115,-0.113,-0.1163,-0.1125,-0.1162,-0.1118,-0.1124,-0.1111,-0.1051,-0.0908,-0.0831,-0.0666,-0.0701,-0.0788,-0.0727,-0.0925,-0.0917,-0.0938,-0.0954,-0.0974,-0.0834,-0.0837,-0.084,-0.0842,-0.0843,-0.0921,-0.0934,-0.1027,-0.1053,-0.108,-0.1133,-0.1112,-0.1168,-0.1181,-0.1099,-0.1146,-0.0983,-0.0908,-0.0575,-0.0569,-0.0436,-0.0487,-0.0518,-0.0541,-0.0565,-0.0467,-0.0465,-0.0264,-0.0264,-0.0264,-0.0265,-0.0265,0,-0.0856,-0.0846,-0.0881,-0.0968,-0.1044,-0.1034,-0.1086,-0.1088,-0.1112,-0.103,-0.0984,-0.0773,-0.0687,-0.0559,-0.0296,-0.0217,-0.0332,-0.0232,-0.0452,-0.0483,-0.0512,-0.0422,-0.0203,-0.0202,-0.0202,-0.0202,0,0,-0.0758,-0.0812,-0.0859,-0.0919,-0.0934,-0.091,-0.0906,-0.0956,-0.0916,-0.0824,-0.0643,-0.0614,-0.0512,-0.035,-0.0339,-0.0224,-0.036,-0.0208,-0.026,-0.0551,-0.058,-0.067,-0.056,0,0,0,0,0]},{"header":{"parameterUnit":"m.s-1","parameterCategory":2,"la1":30.2991,"la2":30.254,"lo1":-89.0895,"lo2":-89.0444,"dy":0.0017,"dx":0.0017,"nx":28,"ny":28,"refTime":"2023-08-12T03:00:00:Z","depth":"2","parameterNumber":3,"parameterNumberName":"V-component_of_CURRENTS"},"data":[0,0,0,0,0,0,0,0,0,0,0,0,0,0,0,0,0,0,0,0,0,0,0,0,0,0,0,0,0,0,0,0,0,0,0,0,0,0,0,0,0,0,0,0,0,0,0,0,0,0,0,0,0,0,0,0,0,0,-0.0048,-0.0047,0,-0.0001,-0.0001,-0.0,0.0055,0.0055,0.0056,0.0057,0.0277,0.0282,0.0288,0,0,0,0,0,0,0,0,0,0,0,0,0,-0.0131,-0.0129,-0.0048,-0.0047,-0.0047,-0.0001,-0.0001,-0.0,0.0055,0.0055,0.0056,0.0057,0.0276,0.0282,0.0288,0,0,0,0,0,0,0,0,0,0,0,0,0,-0.009,-0.0129,-0.0048,-0.0015,-0.0011,-0.0002,-0.0001,0.0,0.0054,0.0056,0.0057,0.0058,0.0274,0.0281,0.0289,0.0313,0,0,0.0312,0.0316,0,0,0,0,0,0,0,0,-0.0092,-0.0087,-0.002,-0.0017,-0.0013,0.0022,0.0051,0.0113,0.0054,0.003,0.0057,0.0058,0.0207,0.022,0.0225,0.0323,0.0333,0.0313,0.0318,0.0321,0.0323,0,0,0,0,0,0,0,-0.0095,-0.0089,-0.0029,-0.002,-0.0015,-0.0016,-0.0009,0.0062,0.0115,0.0032,0.0036,0.004,0.021,0.0217,0.0231,0.0336,0.0313,0.032,0.0325,0.0328,0.0494,0.0494,0,0,0,0,0,0,-0.0101,-0.0091,-0.003,-0.0027,-0.0051,-0.0016,-0.0007,0.001,0.0111,0.0125,0.0039,0.0042,0.0203,0.0222,0.0239,0.0278,0.0321,0.0328,0.0333,0.0494,0.0494,0.0494,0,0,0,0,0,0,-0.0103,-0.0096,-0.0032,-0.006,-0.0052,-0.0015,0.0003,0.001,0.0016,0.0114,0.0132,0.0038,0.0205,0.0228,0.0325,0.0287,0.0332,0.0339,0.0494,0.0494,0.0494,0.0354,0,0,0,0,0,0,-0.0105,-0.0096,-0.0091,-0.006,-0.005,-0.0017,0.0002,0.001,0.0017,0.0022,0.0119,0.0141,0.0207,0.0313,0.0333,0.0298,0.0345,0.0495,0.0494,0.0494,0.0359,0.0349,0.034,0,0,0,0,0,-0.0108,-0.0122,-0.009,-0.0084,-0.0042,-0.0017,-0.0012,0.0018,0.0015,0.0025,0.01,0.0138,0.0323,0.032,0.0343,0.031,0.0495,0.0494,0.0494,0.0363,0.0351,0.034,0,0,0,0,0,0,-0.0152,-0.0116,-0.0082,-0.0079,-0.0039,-0.0007,-0.0016,0.0006,0.0064,0.0069,0.0157,0.0185,0.0259,0.0309,0.0303,0.0358,0.0406,0.041,0.0298,0.0288,0.0279,0.0264,0.0351,0,0,0,0,0,-0.0158,-0.0153,-0.0105,-0.0096,-0.009,-0.0053,-0.0046,-0.0017,0.0035,0.0057,0.0117,0.0189,0.0271,0.03,0.0388,0.0416,0.0454,0.0405,0.0395,0.0387,0.0392,0.0426,0.0419,0.0492,0.0492,0.0492,0,0,-0.0168,-0.015,-0.0143,-0.0105,-0.0085,-0.0069,-0.0046,-0.0036,-0.0016,0.0077,0.0107,0.018,0.0283,0.0329,0.0359,0.0362,0.038,0.0386,0.0378,0.0388,0.0425,0.0417,0.0411,0.0492,0.0492,0.0492,0,0,-0.0192,-0.0176,-0.0177,-0.0158,-0.0125,-0.0096,-0.0095,-0.0065,-0.0049,0.0007,0.0074,0.0123,0.0228,0.0276,0.0322,0.0313,0.0353,0.0323,0.0236,0.0268,0.0261,0.0256,0.0257,0.0254,0.0288,0.0287,0.0287,0,-0.0199,-0.0184,-0.0172,-0.0171,-0.0157,-0.0112,-0.01,-0.0081,-0.0019,0.0004,0.0012,0.0145,0.0203,0.027,0.0243,0.0288,0.0307,0.0262,0.0252,0.0248,0.0246,0.0249,0.0246,0.0281,0.0281,0.0282,0.0283,0,-0.0213,-0.0203,-0.0216,-0.0184,-0.0172,-0.0158,-0.0124,-0.0108,-0.0089,-0.0054,0.0011,0.0079,0.0151,0.0151,0.0189,0.0189,0.0208,0.0255,0.0269,0.0229,0.0235,0.0235,0.0271,0.0273,0.0275,0.0277,0,0,-0.0212,-0.0215,-0.0216,-0.0207,-0.0176,-0.0167,-0.0146,-0.0095,-0.0084,-0.0046,-0.0015,0.0045,0.0054,0.0104,0.0134,0.0123,0.0077,0.0145,0.015,0.0126,0.0119,0.0126,0.0128,0.0115,0.0115,0.0115,0.0116,0,-0.0207,-0.0223,-0.0208,-0.02,-0.0209,-0.0166,-0.0148,-0.0108,-0.0078,-0.0045,0.0004,0.0057,0.0044,0.0057,0.0042,0.0082,0.0078,0.0071,0.0182,0.0184,0.018,0.0129,0.0191,0.0198,0.0117,0.0117,0.0117,0,-0.0219,-0.0228,-0.0234,-0.0218,-0.0214,-0.0197,-0.0165,-0.0137,-0.008,-0.0058,-0.0023,0.003,0.0018,0.0032,0.0034,0.0025,0.0059,0.0085,0.0087,0.015,0.0193,0.0237,0.0203,0.0118,0.0118,0.0118,0.0118,0,-0.0253,-0.0244,-0.0248,-0.0246,-0.0222,-0.021,-0.0186,-0.0148,-0.011,-0.0073,-0.0042,-0.0023,-0.0028,0.0013,0.0016,0.0025,0.0041,0.0079,0.0135,0.0135,0.0242,0.0251,0.0134,0.0134,0.0134,0.0134,0.0134,0,-0.0266,-0.0263,-0.0272,-0.028,-0.0267,-0.0256,-0.0226,-0.0201,-0.0142,-0.0105,-0.0068,-0.0033,-0.0037,-0.0018,0.0015,0.0037,0.0038,0.0113,0.0139,0.0191,0.0196,0.0188,0.0194,0.0134,0.0134,0.0134,0.0134,0,-0.0289,-0.0294,-0.0297,-0.0293,-0.0288,-0.0289,-0.0229,-0.0212,-0.0174,-0.0126,-0.0107,-0.0069,-0.0085,-0.0057,-0.0022,0.0014,0.007,0.0111,0.0145,0.0174,0.0144,0.0143,0.0154,0.0155,0.0155,0.0155,0.0155,0,-0.0293,-0.0308,-0.0316,-0.0319,-0.0309,-0.03,-0.0287,-0.0235,-0.0209,-0.0139,-0.0113,-0.01,-0.0075,-0.004,0.0024,0.0088,0.0084,0.0187,0.0231,0.0123,0.0147,0.0146,0.0145,0.0303,0.0305,0.0306,0.0307,0,-0.0289,-0.0297,-0.0303,-0.0323,-0.0324,-0.0301,-0.0284,-0.0256,-0.0208,-0.0165,-0.0112,-0.007,-0.0031,0.0027,0.0085,0.0167,0.0166,0.0213,0.0112,0.0283,0.0263,0.0286,0.0281,0.0317,0.0316,0.0315,0.0315,0.0314,-0.0279,-0.0287,-0.031,-0.0306,-0.0306,-0.0298,-0.0271,-0.025,-0.0195,-0.0143,-0.0143,-0.0109,-0.0092,0.0005,0.0118,0.026,0.0259,0.0301,0.0298,0.0294,0.0306,0.0287,0.0345,0.0345,0.0344,0.0343,0.0343,0,-0.0294,-0.0285,-0.0287,-0.0301,-0.03,-0.0282,-0.0251,-0.0247,-0.0197,-0.0181,-0.0151,-0.0155,-0.0061,0.0012,0.0261,0.0365,0.0403,0.0384,0.0403,0.0395,0.0388,0.0404,0.0469,0.0469,0.0469,0.0469,0,0,-0.0297,-0.0306,-0.0297,-0.0284,-0.0278,-0.0245,-0.0214,-0.0215,-0.0202,-0.0188,-0.0161,-0.0243,-0.0121,-0.0007,0.0165,0.0343,0.035,0.0387,0.0292,0.0295,0.0285,0.0364,0.0384,0,0,0,0,0]}],[{"header":{"parameterUnit":"m.s-1","parameterCategory":2,"la1":30.2991,"la2":30.254,"lo1":-89.0895,"lo2":-89.0444,"dy":0.0017,"dx":0.0017,"nx":28,"ny":28,"refTime":"2023-08-12T03:00:00:Z","depth":"4","parameterNumber":2,"parameterNumberName":"U-component_of_CURRENTS"},"data":[0,0,0,0,0,0,0,0,0,0,0,0,0,0,0,0,0,0,0,0,0,0,0,0,0,0,0,0,0,0,0,0,0,0,0,0,0,0,0,0,0,0,0,0,0,0,0,0,0,0,0,0,0,0,0,0,0,0,-0.1185,-0.1185,0,-0.1222,-0.1223,-0.1223,-0.1257,-0.1257,-0.1257,-0.1258,-0.1306,-0.1307,-0.1308,0,0,0,0,0,0,0,0,0,0,0,0,0,-0.1095,-0.1097,-0.1185,-0.1185,-0.1186,-0.1222,-0.1223,-0.1223,-0.1257,-0.1257,-0.1258,-0.1258,-0.1306,-0.1307,-0.1308,0,0,0,0,0,0,0,0,0,0,0,0,0,-0.1133,-0.1098,-0.1185,-0.1207,-0.1209,-0.1222,-0.1223,-0.1223,-0.1256,-0.1257,-0.1258,-0.1258,-0.1305,-0.1307,-0.1308,-0.1304,0,0,-0.1312,-0.1313,0,0,0,0,0,0,0,0,-0.1131,-0.1137,-0.1203,-0.1205,-0.1208,-0.1236,-0.1209,-0.1251,-0.1256,-0.1238,-0.1258,-0.1259,-0.1283,-0.1286,-0.1292,-0.1306,-0.1308,-0.1312,-0.1313,-0.1314,-0.1314,0,0,0,0,0,0,0,-0.1129,-0.1135,-0.1199,-0.1204,-0.1207,-0.1199,-0.1205,-0.1217,-0.1257,-0.124,-0.1243,-0.1247,-0.1285,-0.129,-0.1293,-0.1309,-0.1312,-0.1313,-0.1314,-0.1315,-0.1398,-0.14,0,0,0,0,0,0,-0.1126,-0.1133,-0.1198,-0.1201,-0.1171,-0.12,-0.1207,-0.1226,-0.1257,-0.1262,-0.1246,-0.1248,-0.1288,-0.1291,-0.1295,-0.1337,-0.1314,-0.1315,-0.1316,-0.1397,-0.1399,-0.14,0,0,0,0,0,0,-0.1125,-0.1133,-0.1197,-0.1167,-0.1174,-0.1201,-0.1222,-0.1226,-0.1255,-0.1261,-0.1267,-0.1273,-0.1288,-0.1293,-0.1322,-0.1338,-0.1316,-0.1317,-0.1395,-0.1397,-0.1399,-0.1393,0,0,0,0,0,0,-0.1122,-0.1132,-0.1152,-0.1167,-0.1176,-0.1213,-0.1221,-0.1227,-0.1256,-0.1259,-0.1285,-0.1289,-0.1289,-0.132,-0.1324,-0.1339,-0.1318,-0.1393,-0.1396,-0.1399,-0.1392,-0.1395,-0.1398,0,0,0,0,0,-0.1119,-0.1141,-0.1153,-0.1161,-0.1201,-0.1214,-0.1218,-0.1238,-0.1256,-0.1267,-0.129,-0.129,-0.134,-0.1322,-0.1326,-0.1342,-0.1392,-0.1395,-0.1399,-0.139,-0.1394,-0.1397,0,0,0,0,0,0,-0.1107,-0.1147,-0.116,-0.1193,-0.1207,-0.122,-0.1236,-0.1251,-0.1278,-0.1292,-0.13,-0.1305,-0.1338,-0.1347,-0.1327,-0.1378,-0.137,-0.1374,-0.1362,-0.1366,-0.1369,-0.1365,-0.1319,0,0,0,0,0,-0.1114,-0.1149,-0.117,-0.1196,-0.1206,-0.1226,-0.1239,-0.1255,-0.1275,-0.1289,-0.1306,-0.1332,-0.135,-0.1364,-0.1381,-0.1404,-0.1399,-0.1422,-0.1425,-0.1427,-0.143,-0.144,-0.1443,-0.1411,-0.1411,-0.141,0,0,-0.1114,-0.1142,-0.1161,-0.1196,-0.1212,-0.1227,-0.1237,-0.1263,-0.1282,-0.1289,-0.1327,-0.1342,-0.136,-0.1385,-0.1402,-0.1396,-0.1432,-0.1431,-0.1433,-0.1434,-0.1444,-0.1447,-0.1449,-0.1413,-0.1412,-0.1412,0,0,-0.1123,-0.1159,-0.1187,-0.1204,-0.1235,-0.1243,-0.1257,-0.1284,-0.1304,-0.1332,-0.1348,-0.137,-0.1402,-0.1411,-0.1421,-0.1454,-0.1448,-0.1473,-0.1481,-0.1491,-0.1493,-0.1495,-0.1475,-0.1475,-0.1473,-0.1473,-0.1473,0,-0.1121,-0.116,-0.1192,-0.1217,-0.1229,-0.1254,-0.127,-0.1292,-0.1326,-0.134,-0.1348,-0.1395,-0.141,-0.1434,-0.1449,-0.1457,-0.1458,-0.1458,-0.1492,-0.1494,-0.1496,-0.1475,-0.1475,-0.1473,-0.1473,-0.1473,-0.1473,0,-0.1142,-0.1176,-0.1191,-0.1234,-0.125,-0.1268,-0.1296,-0.1322,-0.1346,-0.1362,-0.1398,-0.1414,-0.1437,-0.1452,-0.146,-0.1489,-0.1481,-0.149,-0.1474,-0.1498,-0.1475,-0.1475,-0.1473,-0.1473,-0.1473,-0.1473,0,0,-0.1118,-0.1193,-0.1198,-0.1218,-0.1261,-0.1272,-0.1307,-0.1332,-0.1354,-0.1387,-0.1406,-0.1442,-0.1451,-0.1465,-0.1479,-0.1495,-0.1501,-0.1505,-0.1505,-0.1469,-0.1508,-0.135,-0.1335,-0.152,-0.1521,-0.1521,-0.1478,0,-0.1118,-0.1167,-0.1204,-0.1234,-0.1251,-0.1286,-0.1307,-0.134,-0.1368,-0.1393,-0.1418,-0.1445,-0.1456,-0.147,-0.1486,-0.1503,-0.1506,-0.1511,-0.1505,-0.1504,-0.1347,-0.1331,-0.1523,-0.1478,-0.1478,-0.1479,-0.1479,0,-0.1117,-0.115,-0.1189,-0.1232,-0.1242,-0.1262,-0.1297,-0.1323,-0.1367,-0.1387,-0.1417,-0.1443,-0.1469,-0.1479,-0.1498,-0.1504,-0.1507,-0.1516,-0.1514,-0.137,-0.1346,-0.1457,-0.1479,-0.1479,-0.1479,-0.1479,-0.1479,0,-0.1075,-0.1132,-0.1163,-0.1181,-0.1236,-0.1255,-0.1276,-0.132,-0.1341,-0.139,-0.1407,-0.1439,-0.1449,-0.1474,-0.1479,-0.1502,-0.1486,-0.1513,-0.1368,-0.1357,-0.1516,-0.1515,-0.1524,-0.1524,-0.1524,-0.1524,-0.1525,0,-0.105,-0.1074,-0.1149,-0.1166,-0.1184,-0.1231,-0.1252,-0.1283,-0.1324,-0.1334,-0.14,-0.14,-0.1455,-0.1453,-0.1469,-0.1387,-0.1467,-0.1352,-0.1331,-0.1513,-0.1512,-0.1514,-0.1513,-0.1523,-0.1523,-0.1523,-0.1524,0,-0.1001,-0.1058,-0.1094,-0.1156,-0.1171,-0.1185,-0.1229,-0.1237,-0.1292,-0.1308,-0.1326,-0.1369,-0.1337,-0.1359,-0.1371,-0.1338,-0.1308,-0.1266,-0.1424,-0.1416,-0.118,-0.1181,-0.11,-0.1094,-0.1089,-0.1085,-0.1081,0,-0.0981,-0.1001,-0.1077,-0.1088,-0.1118,-0.1144,-0.1151,-0.1209,-0.1221,-0.1269,-0.1264,-0.1257,-0.1265,-0.1144,-0.118,-0.1141,-0.1143,-0.1131,-0.1186,-0.1147,-0.1136,-0.1144,-0.1151,-0.1073,-0.1072,-0.107,-0.1069,0,-0.0932,-0.0975,-0.1002,-0.1027,-0.1045,-0.1056,-0.1078,-0.108,-0.1134,-0.1202,-0.1161,-0.1133,-0.1067,-0.1039,-0.099,-0.0987,-0.1145,-0.1078,-0.1091,-0.1142,-0.1113,-0.1109,-0.1122,-0.1051,-0.1054,-0.1056,-0.1057,0,-0.0891,-0.0891,-0.0933,-0.0942,-0.0957,-0.0942,-0.0975,-0.0971,-0.0989,-0.1061,-0.1032,-0.1021,-0.1045,-0.0954,-0.0925,-0.0873,-0.0878,-0.0897,-0.0919,-0.0939,-0.0901,-0.0842,-0.066,0,0,0,0,0,-0.0844,-0.0831,-0.0834,-0.0831,-0.084,-0.0849,-0.0905,-0.0946,-0.1013,-0.0951,-0.099,-0.0926,-0.0845,-0.0846,-0.0753,-0.0835,-0.0876,-0.0726,-0.0911,-0.0954,-0.0974,-0.0942,0,0,0,0,0,0,-0.0807,-0.0814,-0.0806,-0.0731,-0.07,-0.0696,-0.0729,-0.0785,-0.0768,-0.0844,-0.0801,-0.0857,-0.0786,-0.0853,-0.0722,-0.0719,-0.0817,-0.0726,-0.0723,-0.0942,-0.0961,-0.0977,-0.0951,0,0,0,0,0]},{"header":{"parameterUnit":"m.s-1","parameterCategory":2,"la1":30.2991,"la2":30.254,"lo1":-89.0895,"lo2":-89.0444,"dy":0.0017,"dx":0.0017,"nx":28,"ny":28,"refTime":"2023-08-12T03:00:00:Z","depth":"4","parameterNumber":3,"parameterNumberName":"V-component_of_CURRENTS"},"data":[0,0,0,0,0,0,0,0,0,0,0,0,0,0,0,0,0,0,0,0,0,0,0,0,0,0,0,0,0,0,0,0,0,0,0,0,0,0,0,0,0,0,0,0,0,0,0,0,0,0,0,0,0,0,0,0,0,0,-0.0138,-0.0138,0,-0.0154,-0.0154,-0.0155,-0.0148,-0.0147,-0.0147,-0.0146,-0.0126,-0.0126,-0.0127,0,0,0,0,0,0,0,0,0,0,0,0,0,-0.012,-0.0121,-0.0138,-0.0138,-0.0138,-0.0153,-0.0154,-0.0155,-0.0148,-0.0147,-0.0146,-0.0146,-0.0126,-0.0126,-0.0127,0,0,0,0,0,0,0,0,0,0,0,0,0,-0.0136,-0.0121,-0.0138,-0.0133,-0.0132,-0.0153,-0.0154,-0.0155,-0.0149,-0.0147,-0.0146,-0.0145,-0.0126,-0.0126,-0.0127,-0.0152,0,0,-0.0128,-0.0128,0,0,0,0,0,0,0,0,-0.0135,-0.0137,-0.0134,-0.0133,-0.0133,-0.0144,-0.014,-0.0151,-0.0149,-0.0147,-0.0146,-0.0145,-0.0127,-0.0127,-0.014,-0.0151,-0.0151,-0.0128,-0.0128,-0.0128,-0.0128,0,0,0,0,0,0,0,-0.0134,-0.0136,-0.0149,-0.0134,-0.0133,-0.0135,-0.0137,-0.0143,-0.0146,-0.0147,-0.0146,-0.0141,-0.0127,-0.0139,-0.0139,-0.015,-0.0128,-0.0128,-0.0128,-0.0128,-0.0165,-0.0166,0,0,0,0,0,0,-0.0123,-0.0135,-0.0148,-0.0149,-0.0126,-0.0136,-0.0138,-0.0145,-0.0147,-0.0145,-0.0142,-0.014,-0.0139,-0.0138,-0.0138,-0.017,-0.0128,-0.0128,-0.0129,-0.0164,-0.0165,-0.0166,0,0,0,0,0,0,-0.0123,-0.0125,-0.0148,-0.0138,-0.014,-0.0137,-0.0146,-0.0146,-0.0147,-0.0142,-0.014,-0.014,-0.0138,-0.0137,-0.0153,-0.0168,-0.0129,-0.0129,-0.0163,-0.0164,-0.0166,-0.0232,0,0,0,0,0,0,-0.0123,-0.0125,-0.0135,-0.0138,-0.014,-0.0158,-0.0146,-0.0147,-0.0144,-0.0142,-0.014,-0.0138,-0.0137,-0.0152,-0.0153,-0.0168,-0.0129,-0.0162,-0.0164,-0.0165,-0.0229,-0.0235,-0.0241,0,0,0,0,0,-0.0122,-0.0135,-0.0136,-0.0137,-0.0151,-0.0158,-0.0161,-0.0157,-0.0145,-0.0153,-0.0159,-0.0138,-0.0161,-0.0154,-0.0154,-0.017,-0.0162,-0.0163,-0.0165,-0.0226,-0.0234,-0.0241,0,0,0,0,0,0,-0.0128,-0.0136,-0.0136,-0.0149,-0.0152,-0.0155,-0.0162,-0.0155,-0.0167,-0.0164,-0.0157,-0.0157,-0.0176,-0.0162,-0.0154,-0.0183,-0.0154,-0.0156,-0.02,-0.0208,-0.0214,-0.0208,-0.0129,0,0,0,0,0,-0.0135,-0.0146,-0.015,-0.0158,-0.0164,-0.0163,-0.0165,-0.0161,-0.0166,-0.017,-0.0179,-0.018,-0.0187,-0.0188,-0.0197,-0.0215,-0.0178,-0.0221,-0.0227,-0.0232,-0.0228,-0.0192,-0.0194,-0.0172,-0.0172,-0.0172,0,0,-0.0138,-0.0141,-0.0147,-0.0159,-0.0164,-0.0187,-0.0163,-0.0166,-0.0188,-0.0166,-0.0209,-0.0206,-0.0197,-0.0226,-0.023,-0.0213,-0.022,-0.0234,-0.0239,-0.0231,-0.0194,-0.0196,-0.0198,-0.0173,-0.0173,-0.0173,0,0,-0.0145,-0.0154,-0.017,-0.0182,-0.0187,-0.0195,-0.0193,-0.0207,-0.0218,-0.0249,-0.0242,-0.0252,-0.0266,-0.0274,-0.0272,-0.0314,-0.0256,-0.0304,-0.0329,-0.0296,-0.0297,-0.0298,-0.0255,-0.0251,-0.0304,-0.0304,-0.0304,0,-0.015,-0.0174,-0.0173,-0.0196,-0.0213,-0.0199,-0.0228,-0.0242,-0.0262,-0.028,-0.0267,-0.0295,-0.0293,-0.0314,-0.033,-0.0329,-0.0286,-0.0306,-0.0303,-0.0303,-0.0303,-0.0258,-0.0253,-0.0307,-0.0307,-0.0306,-0.0306,0,-0.0174,-0.0201,-0.0211,-0.0244,-0.0261,-0.028,-0.03,-0.0324,-0.0331,-0.0344,-0.037,-0.037,-0.038,-0.038,-0.0368,-0.0368,-0.0331,-0.0318,-0.0285,-0.0309,-0.0261,-0.0254,-0.0312,-0.0311,-0.031,-0.0309,0,0,-0.0181,-0.0222,-0.0229,-0.0262,-0.0293,-0.0312,-0.0354,-0.0392,-0.0418,-0.0431,-0.0459,-0.0472,-0.0456,-0.0452,-0.0434,-0.0402,-0.0371,-0.0354,-0.0351,-0.0311,-0.0275,-0.0269,-0.0261,-0.0346,-0.0345,-0.0344,-0.0243,0,-0.0208,-0.0256,-0.0275,-0.0339,-0.0375,-0.0394,-0.0434,-0.0463,-0.0482,-0.0512,-0.0495,-0.0512,-0.0486,-0.0482,-0.0452,-0.0401,-0.0356,-0.0399,-0.0257,-0.0253,-0.0245,-0.0255,-0.0342,-0.0238,-0.0236,-0.0235,-0.0234,0,-0.0242,-0.0271,-0.0329,-0.0399,-0.0417,-0.0455,-0.0519,-0.0551,-0.0578,-0.0587,-0.0589,-0.057,-0.0552,-0.0509,-0.0421,-0.0441,-0.0358,-0.0301,-0.0296,-0.0261,-0.0236,-0.0207,-0.0222,-0.0223,-0.0224,-0.0225,-0.0225,0,-0.0254,-0.0323,-0.037,-0.0395,-0.046,-0.05,-0.0535,-0.0576,-0.0607,-0.0627,-0.0635,-0.0611,-0.0597,-0.05,-0.0407,-0.0399,-0.0284,-0.0265,-0.0174,-0.0172,-0.0177,-0.0177,-0.0171,-0.0171,-0.0171,-0.0171,-0.0171,0,-0.0289,-0.0335,-0.0383,-0.0416,-0.0487,-0.0521,-0.0591,-0.0621,-0.065,-0.0681,-0.0666,-0.0665,-0.0587,-0.0522,-0.0413,-0.0288,-0.0292,-0.0174,-0.0147,-0.0208,-0.0213,-0.0172,-0.0173,-0.0167,-0.0168,-0.0169,-0.017,0,-0.0306,-0.0331,-0.0399,-0.047,-0.0496,-0.0548,-0.0626,-0.067,-0.0686,-0.0718,-0.0719,-0.0704,-0.0626,-0.0534,-0.0392,-0.0308,-0.0181,-0.0123,-0.0197,-0.0177,-0.008,-0.0086,-0.0007,-0.0006,-0.0005,-0.0005,-0.0004,0,-0.0321,-0.0349,-0.0432,-0.0478,-0.0519,-0.0593,-0.0642,-0.0684,-0.0715,-0.0735,-0.0738,-0.0694,-0.0666,-0.0472,-0.0373,-0.0181,-0.0143,-0.0071,-0.0069,-0.0082,-0.0064,-0.0071,-0.0078,-0.0003,-0.0003,-0.0002,-0.0002,0,-0.0354,-0.0375,-0.0427,-0.0507,-0.0575,-0.0653,-0.0715,-0.0729,-0.0763,-0.0774,-0.0741,-0.0663,-0.0583,-0.0462,-0.033,-0.0185,-0.0125,-0.0061,-0.0061,-0.0058,-0.0075,-0.006,-0.0068,0.0001,0.0,0.0,-0.0,0,-0.0377,-0.0416,-0.047,-0.0544,-0.0625,-0.0692,-0.0727,-0.0749,-0.0768,-0.0759,-0.0747,-0.0668,-0.0632,-0.046,-0.0332,-0.0212,-0.016,-0.0097,-0.0094,-0.0096,-0.0161,-0.0198,-0.0133,0,0,0,0,0,-0.0402,-0.0439,-0.0507,-0.0592,-0.0668,-0.0711,-0.0767,-0.0785,-0.0793,-0.0763,-0.0749,-0.0665,-0.0503,-0.0445,-0.0318,-0.0309,-0.0146,-0.0154,-0.0073,0.0017,0.0014,-0.0048,0,0,0,0,0,0,-0.0424,-0.0479,-0.0504,-0.0605,-0.0665,-0.0751,-0.0785,-0.0794,-0.0762,-0.0751,-0.0667,-0.0618,-0.0466,-0.0578,-0.0314,-0.0281,-0.0204,-0.0082,-0.0078,0.0019,0.0016,0.0013,-0.0052,0,0,0,0,0]}]]